AirNav   Everest Fuels
 
 1649 users online  

FD44 Eagles Nest Aerodrome
Crescent City, Florida, USA

GOING TO CRESCENT CITY?


FAA INFORMATION EFFECTIVE 16 JUNE 2022

Location

FAA Identifier: FD44
Lat/Long: 29-25-37.0000N 081-36-15.0000W
29-25.616667N 081-36.250000W
29.4269444,-81.6041667
(estimated)
Elevation: 63 ft. / 19 m (estimated)
Variation: 03W (1985)
From city: 5 miles W of CRESCENT CITY, FL
Time zone: UTC -4 (UTC -5 during Standard Time)
Zip code: 32112

Airport Operations

Airport use: Private use. Permission required prior to landing
Activation date: 11/1985
Control tower: no
ARTCC: JACKSONVILLE CENTER
FSS: GAINESVILLE FLIGHT SERVICE STATION
Attendance: UNATNDD
Wind indicator: yes
Segmented circle: no

Airport Communications

WX AWOS-3 at 28J (15 nm N): 119.925 (386-312-2212)

Nearby radio navigation aids

VOR radial/distance  VOR name  Freq  Var
OMNr286/26.7ORMOND BEACH VORTAC112.6000E
SGJr210/34.8ST AUGUSTINE VOR/DME109.4006W
OCFr065/35.8OCALA VORTAC113.7000E
GNVr119/38.4GATORS VORTAC116.2004W

 
NDB name  Hdg/Dist  Freq  Var  ID
REYNOLDS182/32.533807WRYD .-. -.-- -..

Airport Services

Runway Information

Runway 18/36

Dimensions: 3200 x 100 ft. / 975 x 30 m
Surface: turf
Runway edge lights: low intensity
RUNWAY 18  RUNWAY 36
Traffic pattern: leftleft
Displaced threshold: 600 ft.no

Runway 18W/36W

Dimensions: 3300 x 125 ft. / 1006 x 38 m
Surface: water
RUNWAY 18W  RUNWAY 36W
Elevation: 43.0 ft.43.0 ft.
Traffic pattern: leftleft

Airport Ownership and Management from official FAA records

Ownership: Privately-owned
Owner: EAGLES NEST HOA
521 GEORGETOWN SHORTCUT ROAD
CRESCENT CITY, FL 32112
Phone (386) 467-3011
Manager: RICK TOLLER, PRESIDENT
521 GEORGETOWN SHORTCUT ROAD
CRESCENT CITY, FL 32112
Phone (386) 467-3011

Airport Operational Statistics

Aircraft based on the field: 22
Single engine airplanes: 20
Multi engine airplanes: 2
    

Additional Remarks

SEAPLANE BASE IS IN LAKE THAT IS LOCATED WEST OF THE TURF RY.
FOR CD CTC JACKSONVILLE APCH AT 904-741-0284.

Instrument Procedures

There are no published instrument procedures at FD44.

Some nearby airports with instrument procedures:

28J - Palatka Municipal Airport - Lt. Kay Larkin Field (15 nm N)
KFIN - Flagler Executive Airport (21 nm E)
KOMN - Ormond Beach Municipal Airport (27 nm E)
KDED - DeLand Municipal Airport-Sidney H Taylor Field (27 nm SE)
X23 - Umatilla Municipal Airport (30 nm S)
 
Loc | Ops | Rwys | IFR | FBO | Links
Com | Nav | Svcs | Stats | Notes
Area around FD44 (Eagles Nest Aerodrome)
 
Road maps at: MapQuest Bing Google
 
Aerial photo
WARNING: Photo may not be current or correct
Aerial photo of FD44 (Eagles Nest Aerodrome)
Do you have a better or more recent aerial photo of Eagles Nest Aerodrome that you would like to share? If so, please send us your photo.

 
Sectional chart

 
Airport distance calculator
Flying to Eagles Nest Aerodrome? Find the distance to fly.

From to FD44

Sunrise and sunset
Times for 07-Jul-2022
 Local
(UTC-4)
 Zulu
(UTC)
Morning civil twilight06:0710:07
Sunrise06:3410:34
Sunset20:2900:29
Evening civil twilight20:5600:56

Current date and time
Zulu (UTC)  07-Jul-2022 18:25:39
Local (UTC-4)  07-Jul-2022 14:25:39
 
METAR
K28J 
15nm N 
071715Z AUTO 00000KT 9SM BKN039 BKN048 BKN060 31/22 A3004 RMK AO2
KFIN 
21nm E 
071750Z 10005KT 10SM SCT043 SCT049 32/23 A3004
KOMN 
27nm E 
071750Z 06006KT 7SM SCT027 31/25 A3005
KDED 
27nm SE 
071755Z AUTO 35005KT 10SM BKN045 BKN050 OVC075 33/23 A3004 RMK AO2 T03280233 10336 20265
TAF
KDAB 
32nm SE 
071734Z 0718/0818 12008KT P6SM VCTS SCT035CB SCT080 SCT250 FM072200 14009KT P6SM SCT040 FM080100 18003KT P6SM FEW025 FM081400 19006KT P6SM FEW030
KSGJ 
36nm NE 
071720Z 0718/0818 12010KT P6SM VCTS SCT030 SCT060CB FM080000 19008KT P6SM FEW050 SCT150 SCT250
KLEE 
38nm S 
071734Z 0718/0818 VRB04KT P6SM SCT035 FM072000 VRB06KT P6SM VCTS SCT040CB SCT100 BKN250 TEMPO 0720/0722 3SM TSRA BKN030CB FM080100 17004KT P6SM FEW050 FEW120 SCT250 FM081600 18006KT P6SM SCT035 AMD LTD TO VIS WX WIND
KGNV 
39nm NW 
071720Z 0718/0818 VRB06KT P6SM VCTS SCT030 BKN060CB TEMPO 0718/0722 VRB15G25KT 3SM TSRA BKN030CB FM080200 22003KT P6SM FEW050 SCT150 SCT250
NOTAMs
Click for the latest NOTAMs
NOTAMs are issued by the DoD/FAA and will open in a separate window not controlled by AirNav.

 

 
 

Would you like to see your business listed on this page?

 If your business provides an interesting product or service to pilots, flight crews, aircraft, or users of the Eagles Nest Aerodrome, you should consider listing it here.  To start the listing process, click on the button below
 
Add a business
 

Other Pages about Eagles Nest Aerodrome

Update a link
 
Copyright © AirNav, LLC. All rights reserved. Privacy Policy  Contact